Starlink 11710

operational
NORAD ID: 64244 Int'l Des: 2025-119 Owner: SPXS Country: US Constellation: starlink
LEOCIRCULAR

Über Starlink 11710

Beschreibung wird geladen...

Live-Position

3D-Globus wird geladen...

Nächste Überflüge

Höhenverlauf

Altitude vs Time

uPlot chart will show altitude changes over time

Zweizeiliger Elementsatz

1 64244U 25119M 25353.32878139 .00240203 00000-0 18167-2 0 9993
2 64244 43.0003 333.7140 0001762 285.4723 74.5950 15.70907109 32600
Epoch: 19. Dez. 2025 • Age: 23 hours

Aktueller Status

Höhe 354.2 km
Geschwindigkeit 7.70 km/s
Subsatellitenpunkt 16.66°N, 154.22°E
Startdatum 3. Juni 2025
Alter 0.5 years
Typ internet

Technische Details

Klassifizierung Payload
Masse 960.00 kg
Trockenmasse 910.00 kg
Gesamtmasse 960.00 kg
Länge 0.30 m
Durchmesser 4.10 m
Spannweite 29.00 m
Form Box + pan
Hersteller SPXS
Bus-Typ Starlink V2MD
Phasenstatus In Orbit
Besitzer/Staat SPXS/US

Große Konstellationen

Loading constellations...